Vorticity
6 10 9 7 5 6 7 10 11 10 5 4 6 2 4 3 1 1 6 3 2 3 6 5 9 7 7 5 6 7 9 7 10 20 8 -4 -1 0 3 2 4 13 11 9 7
8 9 8 6 7 6 8 10 11 10 3 5 4 5 1 3 1 1 1 3 2 3 6 6 9 14 4 9 1 2 0 13 8 6 8 3 6 5 7 10 13 11 12 10 7
7 7 7 7 7 7 10 10 10 9 3 5 2 6 2 3 3 2 1 2 5 4 0 7 4 8 6 4 8 7 7 7 6 9 11 10 11 9 11 14 11 10 8 7 8
8 7 7 7 8 8 10 10 10 8 4 3 4 5 4 3 1 14 3 1 1 2 -2 8 7 6 9 8 5 1 3 6 8 4 5 3 7 17 8 20 12 15 13 15 16
8 7 7 8 11 10 11 10 8 8 6 2 2 2 4 3 0 -6 2 1 -0 5 7 5 7 3 8 2 5 3 6 10 6 8 14 16 11 1 13 5 11 7 7 6 3
8 7 9 10 13 11 12 11 7 8 6 4 2 3 3 5 6 -1 2 1 2 5 3 5 10 5 7 10 10 4 8 10 25 5 -0 2 4 21 3 15 -10 5 5 7 6
8 9 5 8 13 13 12 11 7 7 6 5 5 3 3 2 2 2 1 2 2 6 6 8 7 9 4 9 13 -0 8 20 5 -7 1 3 15 4 16 1 8 13 18 13 5
8 7 8 12 12 16 12 9 6 5 5 5 4 4 5 4 4 4 4 6 6 7 10 11 8 8 8 9 9 21 19 7 -6 -1 8 13 12 7 -8 14 21 18 23 22 23
8 8 7 10 12 13 11 7 7 5 5 5 3 3 10 7 6 7 6 9 10 10 9 9 5 7 12 15 9 7 -10 0 6 6 7 5 3 -10 13 13 18 6 5 12 18
9 8 7 8 12 12 10 7 6 5 6 5 6 7 -1 4 11 9 7 -0 11 7 9 6 6 11 15 0 -4 -2 1 0 6 4 7 11 11 7 16 27 6 6 8 9 10
8 7 7 7 10 12 11 7 7 6 6 8 -9 28 -4 -7 13 7 9 13 6 -0 3 11 10 17 9 6 4 1 2 5 16 16 5 5 3 34 17 6 3 12 7 4 5
8 8 7 7 7 7 6 7 8 7 16 13 10 3 -3 -1 -0 6 5 -2 0 10 14 6 5 13 5 5 -5 6 17 11 24 -17 11 3 31 20 7 8 -0 2 1 3 3
7 7 7 7 8 7 8 7 7 5 6 14 8 6 3 6 4 7 5 6 9 9 12 9 -8 -6 -4 3 6 10 9 13 6 3 25 8 22 7 5 4 -0 0 -0 2 -12
6 6 6 6 6 8 8 7 7 6 10 22 29 26 18 11 11 8 10 12 8 9 17 19 23 18 11 7 5 9 15 1 3 11 9 13 7 17 7 1 -1 2 2 4 7
7 6 6 6 7 10 10 8 9 6 9 17 14 7 12 18 2 21 21 9 9 6 -0 -2 5 3 5 8 19 6 4 4 7 16 11 8 16 36 3 1 -0 -2 11 5 -1
7 7 7 8 8 10 11 11 8 2 17 9 9 13 8 13 6 11 15 11 8 9 6 8 6 5 7 10 11 6 5 15 23 12 18 14 4 23 21 18 -5 18 3 4 -0
9 9 8 8 10 9 11 9 -0 2 10 18 9 9 11 14 9 1 4 5 -1 14 22 15 6 9 7 4 14 -7 11 15 14 13 0 3 22 -8 22 -1 3 -1 13 -0 5
11 10 9 9 8 9 9 10 3 21 2 9 17 10 6 5 9 11 5 6 5 7 -1 12 14 21 17 10 -4 5 23 4 10 7 -1 -14 17 6 10 24 -12 6 4 -0 -5
11 10 9 10 9 12 9 1 8 17 17 13 6 11 10 9 -3 11 10 7 10 18 -6 4 13 16 6 -3 10 10 2 12 3 14 16 7 19 -8 10 10 -5 6 -6 -2 -2
11 11 10 9 10 8 7 -9 -9 -0 7 13 9 15 14 8 0 9 7 20 19 8 13 6 9 19 14 15 8 14 9 4 14 8 10 12 16 -6 7 7 -12 -14 -3 8 5
11 10 11 8 8 7 1 -10 6 -1 -2 1 7 4 -2 7 3 13 1 2 10 4 8 9 9 -3 6 6 7 5 5 5 8 2 8 5 23 30 -5 -21 -8 -9 -4 6 9
10 9 7 11 8 5 4 4 -4 32 -7 -4 -3 2 5 12 16 -4 3 -8 7 14 14 18 5 8 1 -1 6 17 9 6 -4 21 -2 4 6 42 21 16 -13 3 15 12 7
7 7 6 11 8 4 8 6 9 3 4 -0 -4 13 16 -1 -6 26 10 6 11 0 3 12 13 14 20 24 19 17 17 18 18 11 6 -12 -4 7 10 -21 1 7 9 7 3
8 4 5 6 6 8 10 4 4 11 10 4 3 4 5 7 16 -10 14 12 17 8 6 11 14 -12 -24 -17 -23 -14 -15 -25 3 4 -1 -16 -13 -2 -4 5 11 19 8 1 2
9 15 2 25 2 4 9 -5 23 8 -0 1 6 10 6 9 10 11 5 3 3 2 4 3 4 4 5 7 7 11 11 8 5 3 1 -7 -6 5 16 20 11 -2 2 5 4
9 -0 11 5 -15 36 12 -2 7 2 16 17 13 19 13 18 10 -4 23 14 4 11 17 13 10 10 -0 5 8 14 21 22 20 22 22 24 21 30 23 -4 3 3 3 7 7
9 6 4 7 9 4 -9 19 31 21 1 2 4 -2 -2 5 12 12 9 1 3 12 11 13 7 -0 14 25 6 47 57 53 48 39 28 12 7 2 -2 1 6 4 12 7 -5
Height
3156 3156 3157 3158 3158 3159 3160 3162 3164 3165 3167 3170 3171 3172 3173 3174 3175 3177 3177 3178 3177 3177 3176 3177 3176 3176 3176 3175 3175 3176 3177 3175 3175 3174 3173 3173 3171 3171 3169 3167 3166 3163 3161 3160 3160
3155 3154 3156 3157 3158 3157 3159 3161 3163 3164 3166 3169 3171 3172 3173 3174 3175 3176 3178 3177 3177 3176 3176 3176 3175 3175 3175 3174 3173 3173 3174 3173 3172 3172 3170 3169 3168 3167 3165 3163 3161 3159 3157 3155 3154
3153 3153 3154 3157 3156 3156 3157 3160 3161 3164 3166 3167 3170 3172 3172 3174 3175 3175 3175 3176 3176 3176 3175 3175 3174 3173 3173 3172 3171 3169 3169 3170 3170 3169 3166 3165 3165 3164 3161 3158 3158 3154 3152 3150 3150
3150 3152 3153 3154 3156 3154 3156 3158 3160 3163 3165 3167 3169 3171 3172 3173 3176 3174 3174 3174 3174 3174 3174 3174 3173 3173 3171 3170 3169 3166 3166 3166 3165 3165 3163 3162 3161 3159 3158 3156 3152 3150 3148 3146 3146
3149 3151 3151 3152 3154 3153 3154 3156 3158 3161 3163 3166 3167 3169 3171 3172 3173 3173 3173 3172 3173 3172 3172 3172 3171 3170 3169 3168 3166 3164 3164 3162 3162 3160 3159 3157 3158 3155 3155 3153 3151 3148 3145 3143 3142
3148 3149 3149 3150 3151 3151 3153 3155 3157 3159 3162 3164 3166 3167 3169 3171 3171 3171 3171 3171 3171 3171 3170 3170 3169 3168 3166 3166 3164 3162 3161 3159 3158 3157 3156 3155 3154 3153 3153 3150 3148 3145 3141 3139 3138
3146 3146 3146 3146 3148 3149 3151 3154 3157 3158 3160 3162 3164 3165 3167 3170 3168 3169 3169 3169 3168 3168 3168 3167 3166 3166 3164 3163 3161 3160 3158 3156 3155 3155 3153 3151 3149 3151 3149 3146 3142 3139 3136 3134 3134
3143 3143 3143 3144 3146 3147 3149 3153 3155 3157 3159 3161 3162 3162 3163 3165 3165 3166 3166 3167 3166 3165 3165 3165 3164 3163 3162 3160 3159 3158 3157 3155 3155 3153 3151 3148 3143 3146 3144 3140 3138 3135 3133 3132 3131
3141 3141 3141 3143 3144 3146 3149 3151 3153 3155 3157 3159 3160 3160 3161 3161 3162 3163 3163 3163 3163 3161 3162 3162 3162 3162 3160 3157 3158 3157 3155 3153 3151 3151 3148 3146 3140 3143 3139 3135 3135 3134 3132 3130 3129
3139 3139 3140 3142 3144 3145 3148 3150 3151 3152 3155 3156 3157 3160 3159 3159 3159 3159 3160 3160 3160 3159 3161 3160 3159 3158 3157 3157 3155 3156 3153 3151 3149 3148 3143 3142 3138 3138 3135 3134 3134 3133 3132 3130 3128
3135 3137 3138 3140 3143 3145 3147 3148 3151 3152 3152 3153 3154 3154 3156 3156 3156 3157 3157 3158 3157 3157 3158 3157 3156 3155 3154 3154 3152 3154 3151 3149 3147 3145 3140 3138 3134 3132 3132 3133 3133 3132 3133 3131 3129
3134 3135 3136 3139 3142 3143 3144 3145 3147 3149 3149 3148 3150 3149 3151 3152 3153 3153 3155 3157 3154 3155 3155 3155 3153 3154 3152 3151 3151 3151 3149 3146 3144 3141 3137 3135 3131 3130 3131 3131 3132 3131 3131 3132 3131
3130 3132 3135 3137 3139 3140 3142 3144 3144 3145 3146 3147 3145 3146 3148 3149 3148 3149 3152 3153 3151 3151 3153 3151 3151 3151 3149 3149 3148 3148 3147 3145 3142 3137 3134 3132 3130 3130 3131 3130 3131 3129 3130 3131 3129
3127 3129 3132 3135 3139 3138 3141 3142 3142 3143 3144 3142 3141 3142 3142 3143 3144 3145 3147 3149 3148 3149 3150 3148 3147 3147 3146 3147 3148 3145 3144 3142 3140 3137 3134 3133 3131 3129 3129 3129 3128 3130 3129 3128 3126
3124 3126 3129 3132 3134 3137 3139 3140 3141 3143 3143 3138 3138 3138 3138 3141 3141 3141 3143 3144 3145 3147 3149 3147 3146 3146 3145 3146 3144 3144 3142 3140 3137 3134 3133 3131 3131 3126 3127 3127 3128 3128 3127 3126 3124
3120 3123 3126 3129 3131 3134 3136 3139 3139 3144 3138 3134 3134 3134 3135 3137 3139 3140 3140 3142 3143 3144 3143 3143 3144 3144 3143 3143 3142 3141 3141 3138 3134 3133 3133 3131 3130 3125 3124 3126 3127 3127 3125 3124 3121
3117 3120 3123 3125 3129 3133 3135 3136 3140 3138 3134 3133 3131 3133 3133 3135 3138 3139 3139 3140 3141 3141 3141 3141 3140 3140 3141 3141 3141 3140 3139 3137 3136 3136 3133 3130 3129 3124 3125 3125 3126 3124 3123 3122 3120
3112 3116 3120 3123 3125 3129 3131 3134 3134 3130 3130 3130 3130 3132 3132 3134 3136 3136 3136 3137 3138 3138 3140 3138 3137 3138 3139 3139 3140 3138 3138 3138 3138 3138 3133 3129 3125 3123 3123 3122 3122 3122 3121 3119 3117
3109 3112 3116 3119 3122 3125 3129 3128 3126 3127 3128 3129 3130 3131 3132 3133 3134 3133 3133 3134 3135 3136 3139 3136 3136 3136 3137 3137 3139 3136 3136 3137 3136 3136 3135 3126 3124 3123 3120 3121 3120 3120 3118 3115 3111
3105 3108 3111 3114 3117 3121 3122 3121 3122 3125 3127 3128 3128 3129 3129 3130 3130 3131 3131 3131 3132 3133 3135 3135 3135 3134 3134 3134 3135 3135 3135 3135 3135 3137 3135 3125 3121 3119 3119 3119 3117 3115 3112 3110 3106
3101 3103 3107 3110 3112 3114 3113 3115 3119 3122 3124 3126 3126 3126 3127 3128 3128 3128 3130 3130 3130 3131 3132 3132 3133 3133 3132 3131 3131 3133 3132 3132 3133 3134 3132 3131 3120 3116 3115 3115 3114 3111 3108 3106 3103
3095 3099 3102 3104 3108 3106 3108 3111 3117 3117 3120 3122 3123 3123 3125 3126 3126 3126 3126 3127 3127 3128 3129 3129 3128 3127 3129 3129 3128 3127 3128 3128 3128 3130 3127 3125 3116 3114 3112 3111 3111 3107 3105 3103 3100
3090 3094 3096 3098 3099 3101 3105 3107 3111 3113 3115 3117 3118 3119 3122 3123 3125 3123 3122 3124 3124 3124 3125 3126 3124 3124 3125 3126 3124 3123 3123 3124 3124 3124 3122 3123 3112 3111 3110 3109 3106 3104 3103 3100 3097
3085 3088 3091 3092 3094 3097 3100 3102 3105 3107 3110 3111 3113 3115 3116 3117 3119 3119 3118 3119 3119 3120 3121 3122 3120 3121 3121 3121 3121 3121 3120 3119 3119 3117 3114 3106 3105 3107 3109 3105 3102 3100 3098 3094 3091
3077 3080 3083 3084 3089 3092 3095 3097 3099 3102 3104 3107 3107 3109 3112 3113 3114 3114 3114 3115 3116 3116 3117 3118 3116 3116 3116 3115 3115 3112 3110 3110 3109 3108 3106 3100 3099 3100 3101 3098 3095 3093 3091 3087 3083
3070 3074 3077 3080 3084 3086 3088 3091 3095 3097 3099 3100 3102 3105 3107 3107 3109 3109 3109 3111 3111 3112 3112 3113 3112 3111 3109 3110 3108 3100 3099 3097 3097 3097 3093 3095 3092 3094 3092 3092 3091 3088 3084 3080 3076
3063 3066 3071 3074 3077 3081 3082 3086 3090 3094 3094 3095 3098 3101 3101 3103 3104 3104 3105 3106 3107 3107 3108 3109 3108 3107 3102 3103 3100 3094 3087 3086 3088 3090 3091 3089 3090 3088 3087 3086 3085 3082 3079 3074 3068